User: anonymous   Login
Location: Nebraska Star Party
(42.6000°N, 100.8833°W)
Time: 05:11:32
(UTC-05:00)
Language:

Iridium 37 - Orbit

View from above orbital plane
View from above orbital plane
View from above satellite
View from above satellite

Ground track
Ground track

The orbit data is extracted from the following two-line orbital elements,

1 24968U 97056D   16210.17451707  .00000137  00000-0  41955-4 0  9997
2 24968  86.3931  94.3564 0002682  86.6346 273.5156 14.34218607986090
Epoch (UTC): 28 July 2016 04:11:18
Eccentricity: 0.0002682
inclination: 86.3931°
perigee height: 776 km
apogee height: 779 km
right ascension of ascending node: 94.3564°
argument of perigee: 86.6346°
revolutions per day: 14.34218607
mean anomaly at epoch: 273.5156°
orbit number at epoch: 98609

The dashed part of the orbit path shows where the satellite is in the earth's shadow,  

DLR